Other Public Products
Issued by NWS Grand Forks, ND

Home | Current Version | Previous Version | Graphics & Text | Print | Product List | Glossary On
Versions: 1 2 3 4 5 6 7 8 9 10 11 12 13 14 15 16 17 18 19 20 21 22 23 24 25 26 27 28 29 30 31 32 33 34 35 36 37 38 39 40 41 42 43 44 45 46 47 48 49 50
000
FPUS83 KFGF 161131
OPUFGF
PRAIRIE TO PINES WEATHER ROUNDUP
NATIONAL WEATHER SERVICE EASTERN NORTH DAKOTA/GRAND FORKS ND
500 AM CST TUE JAN 16 2018

 **SATELLITE DATA USED TO AUGMENT SKY COVER AT AUTOMATED STATIONS**
 *****  WEATHER ACROSS EASTERN NORTH DAKOTA  *****

CITY           SKY/WX    TMP DP  RH WIND       PRES   REMARKS
GRAND FORKS    FAIR     -15 -20  78 W7        30.79F WCI -31
GRND FORKS AFB FAIR     -15 -23  68 W3        30.78F
GRND FORKS NWS   N/A    -15 N/A N/A NW3         N/A
BUXTON           N/A    -15 -16  97 NW3         N/A
DEVILS LAKE    FAIR     -15 -20  78 SW7       30.72F WCI -31
FARGO          FAIR     -13 -19  75 NW6       30.80F WCI -27
WAHPETON ARPT  CLOUDY    -9 -17  70 NW8       30.80R WCI -26
$$

 *****  WEATHER ACROSS CENTRAL AND WESTERN NORTH DAKOTA  *****

CITY           SKY/WX    TMP DP  RH WIND       PRES   REMARKS
JAMESTOWN      FAIR     -15 -20  78 W6        30.73F WCI -29
BISMARCK       FAIR     -20 -25  77 CALM      30.76F
MINOT          FAIR     -14 -20  74 S8        30.65F WCI -31
MINOT AFB      CLOUDY   -14 -20  73 S9        30.64F WCI -32
GARRISON         N/A    -18 -24  74 CALM      30.68F
WILLISTON      FAIR     -14 -17  87 CALM      30.62F
DICKINSON      FAIR     -12 -18  74 S8        30.56F WCI -29
HETTINGER      FAIR     -16 -21  78 S3        30.61F
$$

 *****  OTHER OBSERVATIONS NORTHEAST NORTH DAKOTA  *****

CITY           SKY/WX    TMP DP  RH WIND       PRES   REMARKS
WALHALLA       FAIR     -11 -20  64 CALM      30.72F
LANGDON        FAIR     -17 -22  76 SW13      30.65F WCI -39
CAVALIER         N/A    -13 -20  70 S6        30.74F WCI -27
GRAFTON        FAIR     -15 -20  76 SW6       30.79F WCI -29
CANDO          FAIR     -20 -27  69 SW8       30.70F WCI -39
FORT TOTTEN      N/A    -17 -24  71 CALM      29.95S
ROLLA          FAIR      -8 -15  71 SW12      30.60F WCI -27
RUGBY          FAIR     -18 -24  76 SW8       30.69F WCI -37
 ***** THE ABOVE OBSERVATIONS ARE NON NWS ARE NOT QUALITY
        CONTROLLED AND MAY MIS-REPORT RAIN FOR SNOW...
$$

 *****  OTHER OBSERVATIONS SOUTHEAST NORTH DAKOTA *****

CITY           SKY/WX    TMP DP  RH WIND       PRES   REMARKS
COOPERSTOWN    FAIR     -17 -22  76 W12       30.74F WCI -38
VALLEY CITY    FAIR     -17 -22  76 W8        30.76F WCI -34
OAKES            N/A    -15 -22  70 NW8       30.76F WCI -32
GWINNER          N/A    -13 -18  77 NW7       30.77S WCI -29
SHEYENNE NWR     N/A    -14 -22  66 NW5       29.95S WCI -26
BUFFALO          N/A    -15 -21  72 SE6         N/A  WCI -29
WYNDMERE       NOT AVBL
 ***** THE ABOVE OBSERVATIONS ARE NON NWS ARE NOT QUALITY
       CONTROLLED AND MAY MIS-REPORT RAIN FOR SNOW...
$$

  *****  WEATHER ACROSS NORTHERN MINNESOTA  *****

CITY           SKY/WX    TMP DP  RH WIND       PRES   REMARKS
FLAG ISLAND    FAIR     -15 -20  76 CALM      30.68S
WARROAD        FAIR     -17 -24  70 SW3       30.70F
ROSEAU         FAIR     -17 -20  83 SW3       30.72F
HALLOCK        FAIR     -17 -22  76 CALM      30.75F
THF RVR FALLS  FAIR     -19 -24  77 NW6       30.75F WCI -34
HALSTAD        NOT AVBL
FOSSTON        CLOUDY   -17 -22  76 NW5       30.72F WCI -29
BAUDETTE       FAIR     -17 -21  82 W3        30.67F
WASKISH        MOCLDY   -13 -17  84 W5        30.68F WCI -25
CROOKSTON      FAIR     -15 -20  76 CALM      30.79F
$$
  *****  WEATHER ACROSS CENTRAL AND WEST MINNESOTA  *****

CITY           SKY/WX    TMP DP  RH WIND       PRES   REMARKS
BEMIDJI        CLOUDY   -12 -16  83 W7        30.67F WCI -28
PARK RAPIDS    FAIR     -12 -17  78 NW7       30.65S WCI -27
WADENA         FAIR     -15 -18  84 W6        30.67F WCI -29
DETROIT LAKES  CLOUDY   -13 -17  84 NW7       30.71S WCI -29
MOORHEAD       FAIR     -15 -20  76 CALM      30.80S
FERGUS FALLS   MOCLDY   -13 -18  77 NW9       30.80R WCI -31
ELBOW LAKE     CLOUDY   -11 -15  82 NW9       30.74S WCI -29
MORRIS MN      CLOUDY    -9 -15  77 NW14G20   30.73S WCI -31
STAPLES        CLOUDY    -9 -15  77 W9        30.67R WCI -27
WHEATON        FAIR     -11 -17  77 NW10      30.80S WCI -30
$$
  *****  WEATHER ELSEWHERE ACROSS MINNESOTA  *****

CITY           SKY/WX    TMP DP  RH WIND       PRES   REMARKS
DULUTH         FAIR      -2  -4  91 N14       30.56S WCI -21
INTRNTL FALLS  CLOUDY    -4  -7  87 NW6       30.65F WCI -16
ELY            CLOUDY    -2  -6  84 NW6       30.59S WCI -14
CLOQUET        FAIR       0  -6  78 NW13G18   30.59R WCI -18
BRAINERD       FAIR      -6 -11  79 NW7       30.65S WCI -20
HIBBING        CLOUDY    -3  -5  90 NW13      30.61R WCI -22
ALEXANDRIA     FAIR     -11 -16  78 NW9       30.68R WCI -29
SAINT CLOUD    FAIR      -4  -7  87 NW9       30.65S WCI -20
MINNEAPOLIS    CLOUDY     1  -3  83 NW12      30.64S WCI -16
$$

  *****  WEATHER ACROSS SOUTH DAKOTA  *****

CITY           SKY/WX    TMP DP  RH WIND       PRES   REMARKS
SIOUX FALLS    CLOUDY    -5  -9  83 NW16      30.71S WCI -27
BROOKINGS      CLOUDY    -8 -13  78 N12       30.69F WCI -27
WATERTOWN      FAIR     -11 -15  82 NW10      30.68S WCI -30
HURON          MOCLDY   -10 -16  74 NW10      30.80F WCI -29
SISSETON         N/A    -10 -15  78 NW13      30.77S WCI -30
ABERDEEN       MOCLDY   -11 -17  75 NW7       30.79F WCI -26
MITCHELL       MOCLDY    -7 -14  71 NW14      30.80F WCI -28
PIERRE         FAIR      -8 -14  74 NW7       30.77F WCI -23
MOBRIDGE       FAIR     -15 -21  74 CALM      30.73F
RAPID CITY     FAIR     -11 -15  82 SE5       30.59F WCI -23
$$

  *****  SOME WEATHER IN NEARBY STATES *****

CITY           SKY/WX    TMP DP  RH WIND       PRES   REMARKS
GLASGOW MT     FAIR     N/A N/A N/A E15       30.46F
GREAT FALLS MT FAIR      27  13  55 S15       30.18F WCI  15
CHEYENNE WY    FAIR      -2  -8  76 W6        30.40S WCI -14
SCOTTSBLUFF NE FAIR      -8 -13  78 CALM      30.58F
OMAHA NE       LGT SNOW  -1  -8  72 N23       30.73R WCI -25
DES MOINES IA  FLURRIES  -3 -11  68 NW14G23   30.65R WCI -22
DAVENPORT IA   FLURRIES N/A N/A N/A W14       30.52S
CHICAGO IL     FLURRIES  12   7  80 W12       30.36S WCI  -2
EAU CLAIRE WI  FAIR       1  -1  91 CALM      30.53R
LA CROSSE WI   CLOUDY     8   3  80 N8        30.55R WCI  -4
$$

  *****  SOME NATIONAL WEATHER *****

CITY           SKY/WX    TMP DP  RH WIND       PRES   REMARKS
LA GUARDIA NY  CLOUDY    26  20  77 E7        30.50S WCI  18
RALEIGH NC     FAIR      22  16  78 CALM      30.45S
ATLANTA GA     FAIR      32  25  75 SE6       30.38F
NEW ORLEANS LA FAIR      43  43 100 N3        30.39R
OKLAHOMA CITY  FAIR       8  -4  58 N22       30.75R WCI -12
ALBUQUERQUE NM MOCLDY    25  14  63 E20       30.43S WCI  11
SALT LAKE CITY FAIR      32  28  85 NE3       30.31S
LOS ANGELES CA MOCLDY    56  55  97 CALM      30.14R FOG
BOISE ID       FAIR      35  28  75 S9        30.21S
SEATTLE WA     CLOUDY    49  48  97 SE13      30.05R
$$

*** WEATHER ACROSS MANITOBA...SASKATCHEWAN AND ONTARIO ***
                ***ONTARIO***

CITY           SKY/WX    TMP DP  RH WIND       PRES   REMARKS
GERALDTON      FLURRIES   0  -4  85 NW3       30.52F
THUNDER BAY    PTCLDY    -2  -6  84 W7        30.60S WCI -16
SIOUX LOOKOUT  FLURRIES  -9 -15  77 NW5       30.59F WCI -21
TORONTO        FLURRIES  14  10  85 NW8       30.31R WCI   3
BIG TROUT LK   CLOUDY    -6 -13  71 W14       30.34F WCI -26
PICKLE LAKE    PTCLDY   -15 -20  76 W12       30.50  WCI -36
DRYDEN         CLOUDY   -11 -15  84 W7        30.59F WCI -26
KENORA         MOCLDY   -13 -18  77 CALM      30.63F
$$
                *** MANITOBA***

CITY           SKY/WX    TMP DP  RH WIND       PRES   REMARKS
BRANDON        MOCLDY    -9 -15  77 W13       30.62F WCI -30
DAUPHIN        CLOUDY     3  -8  60 SW17      30.54F WCI -17
ISLAND LAKE    CLOUDY    -4 -13  65 SW13G21   30.38F WCI -23
PILOT MOUND      N/A    -17 -24  70 S8          N/A  WCI -34
THE PAS        PTCLDY     0  -9  65 S9        30.36F WCI -16
THOMPSON       MOCLDY     1  -6  71 SW13G20   30.13F WCI -16
WINNIPEG       PTCLDY   -11 -18  70 S12       30.71F WCI -31
LYNN LAKE      CLEAR      5   0  78 W14G20    30.03F WCI -12
CHURCHILL      FLURRIES  10   1  67 W15       29.89F WCI  -6
GILLAM         CLOUDY     3  -6  66 SW16G25   30.09  WCI -16
$$
                ***SASKATCHEWAN***

CITY           SKY/WX    TMP DP  RH WIND       PRES   REMARKS
ESTEVAN        PTCLDY    -4 -13  65 S10G18    30.55F WCI -21
KINDERSLEY     CLEAR      1  -8  66 S6        30.18F WCI -10
LLOYDMINSTER   CLEAR      0  -8  71 SE12      30.11F WCI -18
PRINCE ALBERT  CLEAR    -13 -20  70 VRB2      30.35F
REGINA         CLOUDY    -4 -11  71 SE15      30.44F WCI -25
YORKTON        CLEAR      1  -8  66 S8        30.48F WC



USA.gov is the U.S. government's official web portal to all federal, state and local government web resources and services.